Location: *
(50.3194°N, 7.1067°E)
Time: 22:47:41
(UTC+00:00)

SL-8 R/B - Pass Details

Date: 22 September 2019
Orbit: 657 x 667 km, 48.4° (Epoch: 16 October)

Event Time Altitude Azimuth Distance (km) Brightness Sun altitude
Rises 19:21:33 0° 273° (W) 2,986 8.4 -18.1°
Reaches altitude 10° 19:23:54 10° 271° (W) 2,075 7.3 -18.4°
Maximum altitude 19:28:39 67° 189° (S) 719 3.7 -19.1°
Enters shadow 19:30:06 43° 124° (ESE) 934 4.0 -19.3°
